| time (UTC) | temp C | wind direction | speed KPH | gust KPH | rain 1hr cm | rain 24hr cm | rain mn cm | humidity % | barometer mb |
| 20260506195804 | 20 | 189 | 3.2 | 9.7 | 0.00 | 0.00 | 0.00 | 25 | 1009.6 |
| 20260506195306 | 20 | 96 | 1.6 | 9.7 | 0.00 | 0.00 | 0.00 | 24 | 1009.6 |
| 20260506194804 | 20 | 124 | 3.2 | 11.3 | 0.00 | 0.00 | 0.00 | 26 | 1009.5 |
| 20260506194304 | 20 | 134 | 1.6 | 9.7 | 0.00 | 0.00 | 0.00 | 26 | 1009.6 |
| 20260506193804 | 20 | 226 | 3.2 | 8.0 | 0.00 | 0.00 | 0.00 | 25 | 1009.8 |
| 20260506192804 | 20 | 143 | 3.2 | 8.0 | 0.00 | 0.00 | 0.00 | 25 | 1009.8 |
| 20260506192306 | 20 | 251 | 1.6 | 11.3 | 0.00 | 0.00 | 0.00 | 25 | 1009.8 |
| 20260506191304 | 20 | 243 | 6.4 | 12.9 | 0.00 | 0.00 | 0.00 | 26 | 1009.9 |
| 20260506190304 | 20 | 252 | 4.8 | 12.9 | 0.00 | 0.00 | 0.00 | 26 | 1010.2 |
| 20260506185804 | 20 | 287 | 4.8 | 12.9 | 0.00 | 0.00 | 0.00 | 27 | 1010.0 |
| 20260506185306 | 20 | 208 | 4.8 | 12.9 | 0.00 | 0.00 | 0.00 | 26 | 1010.1 |
| 20260506184304 | 19 | 279 | 4.8 | 11.3 | 0.00 | 0.00 | 0.00 | 28 | 1010.2 |
| 20260506183804 | 19 | 261 | 4.8 | 12.9 | 0.00 | 0.00 | 0.00 | 27 | 1010.4 |
| 20260506183304 | 19 | 287 | 4.8 | 11.3 | 0.00 | 0.00 | 0.00 | 27 | 1010.4 |
| 20260506182804 | 19 | 280 | 8.0 | 16.1 | 0.00 | 0.00 | 0.00 | 27 | 1010.3 |
| 20260506182306 | 20 | 291 | 6.4 | 14.5 | 0.00 | 0.00 | 0.00 | 27 | 1010.4 |
| 20260506181804 | 20 | 228 | 3.2 | 11.3 | 0.00 | 0.00 | 0.00 | 25 | 1010.4 |
| 20260506181303 | 20 | 274 | 4.8 | 14.5 | 0.00 | 0.00 | 0.00 | 27 | 1010.5 |
| 20260506180304 | 20 | 298 | 9.7 | 14.5 | 0.00 | 0.00 | 0.00 | 26 | 1010.7 |
| 20260506175803 | 21 | 251 | 4.8 | 12.9 | 0.00 | 0.00 | 0.00 | 25 | 1010.6 |
| 20260506174304 | 21 | 290 | 4.8 | 16.1 | 0.00 | 0.00 | 0.00 | 26 | 1010.8 |
| 20260506173304 | 20 | 294 | 4.8 | 11.3 | 0.00 | 0.00 | 0.00 | 27 | 1011.0 |
| 20260506172804 | 20 | 294 | 8.0 | 11.3 | 0.00 | 0.00 | 0.00 | 27 | 1011.0 |
| 20260506172306 | 20 | 279 | 4.8 | 9.7 | 0.00 | 0.00 | 0.00 | 27 | 1011.3 |
| 20260506171303 | 20 | 355 | 3.2 | 12.9 | 0.00 | 0.00 | 0.00 | 29 | 1011.3 |
| 20260506170304 | 20 | 330 | 3.2 | 11.3 | 0.00 | 0.00 | 0.00 | 27 | 1011.5 |
| 20260506165804 | 20 | 307 | 3.2 | 9.7 | 0.00 | 0.00 | 0.00 | 27 | 1011.5 |
| 20260506165305 | 20 | 338 | 4.8 | 9.7 | 0.00 | 0.00 | 0.00 | 26 | 1011.7 |
| 20260506164804 | 20 | 278 | 3.2 | 8.0 | 0.00 | 0.00 | 0.00 | 27 | 1011.7 |
| 20260506163804 | 19 | 336 | 3.2 | 8.0 | 0.00 | 0.00 | 0.00 | 27 | 1011.9 |
| 20260506163303 | 19 | 311 | 4.8 | 12.9 | 0.00 | 0.00 | 0.00 | 26 | 1011.9 |
| 20260506162306 | 19 | 294 | 4.8 | 12.9 | 0.00 | 0.00 | 0.00 | 28 | 1011.9 |
| 20260506161304 | 18 | 282 | 4.8 | 9.7 | 0.00 | 0.00 | 0.00 | 29 | 1012.0 |
| 20260506160804 | 18 | 8 | 3.2 | 9.7 | 0.00 | 0.00 | 0.00 | 28 | 1012.0 |
| 20260506160304 | 18 | 324 | 4.8 | 9.7 | 0.00 | 0.00 | 0.00 | 27 | 1012.4 |
| 20260506155306 | 18 | 291 | 4.8 | 9.7 | 0.00 | 0.00 | 0.00 | 29 | 1012.4 |
| 20260506154804 | 17 | 321 | 3.2 | 8.0 | 0.00 | 0.00 | 0.00 | 29 | 1012.3 |
| 20260506153804 | 17 | 334 | 3.2 | 9.7 | 0.00 | 0.00 | 0.00 | 30 | 1012.5 |
| 20260506152804 | 16 | 311 | 1.6 | 4.8 | 0.00 | 0.00 | 0.00 | 30 | 1012.5 |
| 20260506152306 | 16 | 346 | 1.6 | 8.0 | 0.00 | 0.00 | 0.00 | 31 | 1012.5 |
| 20260506151803 | 15 | 280 | 3.2 | 8.0 | 0.00 | 0.00 | 0.00 | 33 | 1012.6 |
| 20260506151304 | 15 | 283 | 1.6 | 4.8 | 0.00 | 0.00 | 0.00 | 34 | 1012.6 |
| 20260506150305 | 13 | 294 | 3.2 | 9.7 | 0.00 | 0.00 | 0.00 | 33 | 1012.9 |
| 20260506145803 | 13 | 289 | 3.2 | 4.8 | 0.00 | 0.00 | 0.00 | 34 | 1012.9 |
| 20260506145305 | 13 | 297 | 1.6 | 4.8 | 0.00 | 0.00 | 0.00 | 36 | 1013.0 |
| 20260506144304 | 12 | 284 | 3.2 | 4.8 | 0.00 | 0.00 | 0.00 | 37 | 1013.0 |
| 20260506143804 | 12 | 317 | 1.6 | 4.8 | 0.00 | 0.00 | 0.00 | 38 | 1013.0 |
| 20260506143304 | 11 | 290 | 1.6 | 4.8 | 0.00 | 0.00 | 0.00 | 38 | 1012.9 |
| 20260506142804 | 11 | 290 | 1.6 | 3.2 | 0.00 | 0.00 | 0.00 | 40 | 1013.0 |
| 20260506142306 | 10 | 311 | 1.6 | 3.2 | 0.00 | 0.00 | 0.00 | 39 | 1013.3 |
| 20260506141804 | 10 | 299 | 1.6 | 3.2 | 0.00 | 0.00 | 0.00 | 40 | 1013.4 |
| 20260506141304 | 10 | 279 | 1.6 | 3.2 | 0.00 | 0.00 | 0.00 | 42 | 1013.2 |
| 20260506140804 | 9 | 292 | 1.6 | 3.2 | 0.00 | 0.00 | 0.00 | 44 | 1013.5 |
| 20260506140304 | 8 | 348 | 0.0 | 3.2 | 0.00 | 0.00 | 0.00 | 45 | 1013.5 |
| 20260506135804 | 7 | 291 | 1.6 | 3.2 | 0.00 | 0.00 | 0.00 | 48 | 1013.4 |
| 20260506134804 | 5 | 301 | 0.0 | 1.6 | 0.00 | 0.00 | 0.00 | 55 | 1013.4 |
| 20260506134304 | 3 | 290 | 0.0 | 3.2 | 0.00 | 0.00 | 0.00 | 56 | 1013.5 |
| 20260506133804 | 2 | 291 | 0.0 | 1.6 | 0.00 | 0.00 | 0.00 | 57 | 1013.7 |
| 20260506133304 | 2 | 290 | 0.0 | 1.6 | 0.00 | 0.00 | 0.00 | 57 | 1013.6 |
| 20260506132804 | 2 | 286 | 0.0 | 1.6 | 0.00 | 0.00 | 0.00 | 57 | 1013.7 |
| 20260506132307 | 1 | 233 | 0.0 | 1.6 | 0.00 | 0.00 | 0.00 | 57 | 1013.6 |
| 20260506131804 | 1 | 222 | 0.0 | 1.6 | 0.00 | 0.00 | 0.00 | 57 | 1013.5 |
| 20260506131304 | 1 | 222 | 0.0 | 0.0 | 0.00 | 0.00 | 0.00 | 57 | 1013.6 |
| 20260506130804 | 1 | 222 | 0.0 | 0.0 | 0.00 | 0.00 | 0.00 | 57 | 1013.6 |
| 20260506130304 | 1 | 221 | 0.0 | 0.0 | 0.00 | 0.00 | 0.00 | 57 | 1013.8 |
| 20260506125305 | 1 | 256 | 0.0 | 1.6 | 0.00 | 0.00 | 0.00 | 57 | 1013.8 |
| 20260506124304 | 1 | 301 | 0.0 | 0.0 | 0.00 | 0.00 | 0.00 | 57 | 1013.7 |
| 20260506123803 | 1 | 303 | 0.0 | 3.2 | 0.00 | 0.00 | 0.00 | 57 | 1013.9 |
| 20260506123304 | 0 | 277 | 1.6 | 3.2 | 0.00 | 0.00 | 0.00 | 57 | 1013.9 |
| 20260506122804 | 0 | 282 | 1.6 | 3.2 | 0.00 | 0.00 | 0.00 | 56 | 1013.8 |
| 20260506122306 | 0 | 290 | 1.6 | 4.8 | 0.00 | 0.00 | 0.00 | 56 | 1013.7 |
| 20260506121804 | 0 | 288 | 1.6 | 4.8 | 0.00 | 0.00 | 0.00 | 56 | 1013.8 |
| 20260506121304 | 0 | 293 | 1.6 | 3.2 | 0.00 | 0.00 | 0.00 | 56 | 1013.7 |
| 20260506120803 | 0 | 286 | 1.6 | 3.2 | 0.00 | 0.00 | 0.00 | 56 | 1014.0 |
| 20260506115803 | 0 | 261 | 0.0 | 3.2 | 0.00 | 0.00 | 0.00 | 55 | 1014.0 |
| 20260506115306 | 0 | 278 | 1.6 | 4.8 | 0.00 | 0.00 | 0.00 | 55 | 1014.1 |
| 20260506114804 | 0 | 294 | 1.6 | 3.2 | 0.00 | 0.00 | 0.00 | 54 | 1014.0 |
| 20260506114304 | 0 | 294 | 1.6 | 3.2 | 0.00 | 0.00 | 0.00 | 55 | 1014.1 |
| 20260506113804 | 1 | 286 | 3.2 | 4.8 | 0.00 | 0.00 | 0.00 | 55 | 1014.2 |
| 20260506113304 | 1 | 289 | 1.6 | 8.0 | 0.00 | 0.00 | 0.00 | 55 | 1014.2 |
| 20260506112804 | 1 | 296 | 4.8 | 9.7 | 0.00 | 0.00 | 0.00 | 55 | 1014.4 |
| 20260506112306 | 1 | 290 | 4.8 | 9.7 | 0.00 | 0.00 | 0.00 | 55 | 1014.6 |
| 20260506111804 | 1 | 285 | 4.8 | 9.7 | 0.00 | 0.00 | 0.00 | 55 | 1014.6 |
| 20260506110804 | 1 | 281 | 4.8 | 11.3 | 0.00 | 0.00 | 0.00 | 55 | 1014.5 |
| 20260506110304 | 1 | 299 | 4.8 | 9.7 | 0.00 | 0.00 | 0.00 | 55 | 1014.4 |
| 20260506105804 | 1 | 295 | 4.8 | 14.5 | 0.00 | 0.00 | 0.00 | 55 | 1014.6 |
| 20260506105305 | 1 | 293 | 3.2 | 8.0 | 0.00 | 0.00 | 0.00 | 55 | 1014.6 |
| 20260506104804 | 1 | 300 | 1.6 | 8.0 | 0.00 | 0.00 | 0.00 | 54 | 1014.7 |
| 20260506104304 | 1 | 290 | 3.2 | 4.8 | 0.00 | 0.00 | 0.00 | 54 | 1014.7 |
| 20260506103804 | 1 | 299 | 1.6 | 4.8 | 0.00 | 0.00 | 0.00 | 54 | 1014.8 |
| 20260506103304 | 1 | 298 | 1.6 | 8.0 | 0.00 | 0.00 | 0.00 | 54 | 1014.9 |
| 20260506102804 | 1 | 313 | 3.2 | 4.8 | 0.00 | 0.00 | 0.00 | 54 | 1014.9 |
| 20260506102305 | 1 | 296 | 3.2 | 8.0 | 0.00 | 0.00 | 0.00 | 54 | 1015.0 |
| 20260506101804 | 1 | 293 | 3.2 | 4.8 | 0.00 | 0.00 | 0.00 | 54 | 1015.2 |
| 20260506101304 | 1 | 287 | 3.2 | 8.0 | 0.00 | 0.00 | 0.00 | 53 | 1015.0 |
| 20260506100804 | 1 | 295 | 3.2 | 8.0 | 0.00 | 0.00 | 0.00 | 53 | 1015.1 |
| 20260506100303 | 1 | 291 | 1.6 | 8.0 | 0.00 | 0.00 | 0.00 | 53 | 1015.2 |
| 20260506095305 | 1 | 302 | 1.6 | 4.8 | 0.00 | 0.00 | 0.00 | 53 | 1015.5 |
| 20260506094803 | 1 | 290 | 1.6 | 8.0 | 0.00 | 0.00 | 0.00 | 52 | 1015.5 |
| 20260506094304 | 1 | 291 | 1.6 | 3.2 | 0.00 | 0.00 | 0.00 | 52 | 1015.5 |
| 20260506093304 | 1 | 289 | 3.2 | 8.0 | 0.00 | 0.00 | 0.00 | 52 | 1015.4 |
| 20260506092803 | 1 | 299 | 3.2 | 8.0 | 0.00 | 0.00 | 0.00 | 51 | 1015.9 |
| 20260506092306 | 1 | 275 | 1.6 | 8.0 | 0.00 | 0.00 | 0.00 | 52 | 1015.9 |
| 20260506091803 | 1 | 293 | 4.8 | 9.7 | 0.00 | 0.00 | 0.00 | 51 | 1015.8 |
| 20260506091303 | 1 | 286 | 3.2 | 8.0 | 0.00 | 0.00 | 0.00 | 51 | 1015.8 |
| 20260506090304 | 1 | 279 | 4.8 | 11.3 | 0.00 | 0.00 | 0.00 | 51 | 1016.0 |
| 20260506085803 | 1 | 290 | 4.8 | 12.9 | 0.00 | 0.00 | 0.00 | 51 | 1016.1 |
| 20260506084804 | 1 | 264 | 8.0 | 14.5 | 0.00 | 0.00 | 0.00 | 51 | 1016.0 |
| 20260506083804 | 1 | 301 | 8.0 | 12.9 | 0.00 | 0.00 | 0.00 | 51 | 1016.2 |
| 20260506082305 | 2 | 302 | 8.0 | 16.1 | 0.00 | 0.00 | 0.00 | 50 | 1016.3 |
| 20260506081804 | 2 | 288 | 8.0 | 19.3 | 0.00 | 0.00 | 0.00 | 49 | 1016.5 |
| 20260506081304 | 2 | 292 | 6.4 | 12.9 | 0.00 | 0.00 | 0.00 | 50 | 1016.7 |
| 20260506080804 | 2 | 292 | 4.8 | 9.7 | 0.00 | 0.00 | 0.00 | 50 | 1016.7 |
| 20260506080304 | 2 | 274 | 4.8 | 9.7 | 0.00 | 0.00 | 0.00 | 49 | 1016.7 |
| 20260506073303 | 2 | 252 | 3.2 | 9.7 | 0.00 | 0.00 | 0.00 | 49 | 1017.0 |
| 20260506072305 | 2 | 276 | 3.2 | 8.0 | 0.00 | 0.00 | 0.00 | 48 | 1017.0 |
| 20260506071803 | 2 | 263 | 3.2 | 9.7 | 0.00 | 0.00 | 0.00 | 48 | 1017.1 |
| 20260506071304 | 2 | 302 | 4.8 | 11.3 | 0.00 | 0.00 | 0.00 | 48 | 1017.1 |
| 20260506070804 | 2 | 285 | 3.2 | 8.0 | 0.00 | 0.00 | 0.00 | 48 | 1017.4 |
| 20260506070303 | 2 | 290 | 4.8 | 11.3 | 0.00 | 0.00 | 0.00 | 47 | 1017.3 |
| 20260506061804 | 3 | 276 | 4.8 | 14.5 | 0.00 | 0.00 | 0.00 | 46 | 1017.8 |
| 20260506061304 | 3 | 279 | 4.8 | 12.9 | 0.00 | 0.00 | 0.00 | 45 | 1017.9 |
| 20260506060804 | 3 | 273 | 3.2 | 11.3 | 0.00 | 0.00 | 0.00 | 44 | 1018.0 |
| 20260506060304 | 3 | 279 | 4.8 | 11.3 | 0.00 | 0.00 | 0.00 | 45 | 1017.7 |
| 20260506050804 | 4 | 275 | 3.2 | 11.3 | 0.00 | 0.00 | 0.00 | 44 | 1018.3 |
| 20260506050304 | 4 | 304 | 3.2 | 8.0 | 0.00 | 0.00 | 0.00 | 44 | 1018.3 |
| 20260506043804 | 4 | 285 | 3.2 | 9.7 | 0.00 | 0.00 | 0.00 | 43 | 1018.2 |
| 20260506042305 | 5 | 273 | 3.2 | 8.0 | 0.00 | 0.00 | 0.00 | 42 | 1018.4 |
| 20260506041804 | 5 | 268 | 3.2 | 8.0 | 0.00 | 0.00 | 0.00 | 41 | 1018.7 |
| 20260506041304 | 5 | 287 | 3.2 | 4.8 | 0.00 | 0.00 | 0.00 | 40 | 1018.6 |
| 20260506040304 | 5 | 276 | 1.6 | 8.0 | 0.00 | 0.00 | 0.00 | 40 | 1018.7 |
| 20260506035306 | 5 | 265 | 4.8 | 9.7 | 0.00 | 0.00 | 0.00 | 39 | 1018.7 |
| 20260506034804 | 6 | 261 | 0.0 | 9.7 | 0.00 | 0.00 | 0.00 | 39 | 1018.6 |
| 20260506034304 | 6 | 293 | 4.8 | 12.9 | 0.00 | 0.00 | 0.00 | 38 | 1018.6 |
| 20260506033804 | 6 | 268 | 4.8 | 12.9 | 0.00 | 0.00 | 0.00 | 38 | 1018.7 |
| 20260506032804 | 6 | 282 | 4.8 | 11.3 | 0.00 | 0.00 | 0.00 | 38 | 1018.6 |
| 20260506031804 | 6 | 260 | 3.2 | 9.7 | 0.00 | 0.00 | 0.00 | 37 | 1018.4 |
| 20260506031304 | 6 | 261 | 3.2 | 9.7 | 0.00 | 0.00 | 0.00 | 37 | 1018.5 |
| 20260506030804 | 6 | 239 | 3.2 | 9.7 | 0.00 | 0.00 | 0.00 | 37 | 1018.4 |
| 20260506030304 | 7 | 243 | 3.2 | 8.0 | 0.00 | 0.00 | 0.00 | 37 | 1018.4 |
| 20260506025306 | 7 | 258 | 4.8 | 11.3 | 0.00 | 0.00 | 0.00 | 35 | 1018.3 |
| 20260506024803 | 7 | 271 | 3.2 | 11.3 | 0.00 | 0.00 | 0.00 | 35 | 1018.4 |
| 20260506024304 | 7 | 214 | 3.2 | 8.0 | 0.00 | 0.00 | 0.00 | 34 | 1018.2 |
| 20260506023804 | 7 | 258 | 4.8 | 12.9 | 0.00 | 0.00 | 0.00 | 33 | 1018.4 |
| 20260506021804 | 8 | 244 | 3.2 | 8.0 | 0.00 | 0.00 | 0.00 | 32 | 1018.3 |
| 20260506021304 | 8 | 227 | 4.8 | 9.7 | 0.00 | 0.00 | 0.00 | 31 | 1018.3 |
| 20260506020804 | 8 | 288 | 1.6 | 11.3 | 0.00 | 0.00 | 0.00 | 31 | 1018.4 |
| 20260506020304 | 8 | 215 | 3.2 | 11.3 | 0.00 | 0.00 | 0.00 | 31 | 1018.3 |
| 20260506015306 | 8 | 141 | 3.2 | 8.0 | 0.00 | 0.00 | 0.00 | 30 | 1018.2 |
| 20260506014803 | 8 | 238 | 3.2 | 11.3 | 0.00 | 0.00 | 0.00 | 30 | 1018.2 |
| 20260506013804 | 8 | 225 | 3.2 | 8.0 | 0.00 | 0.00 | 0.00 | 29 | 1018.3 |
| 20260506013304 | 8 | 225 | 1.6 | 8.0 | 0.00 | 0.00 | 0.00 | 29 | 1018.3 |
| 20260506012804 | 9 | 243 | 3.2 | 8.0 | 0.00 | 0.00 | 0.00 | 29 | 1018.5 |
| 20260506012307 | 9 | 275 | 3.2 | 9.7 | 0.00 | 0.00 | 0.00 | 29 | 1018.4 |
| 20260506011804 | 9 | 117 | 1.6 | 8.0 | 0.00 | 0.00 | 0.00 | 28 | 1018.4 |
| 20260506010804 | 9 | 239 | 3.2 | 9.7 | 0.00 | 0.00 | 0.00 | 29 | 1018.6 |
| 20260506010304 | 9 | 138 | 1.6 | 11.3 | 0.00 | 0.00 | 0.00 | 29 | 1018.6 |
| 20260506005804 | 9 | 120 | 3.2 | 11.3 | 0.00 | 0.00 | 0.00 | 28 | 1018.6 |
| 20260506005306 | 9 | 238 | 3.2 | 8.0 | 0.00 | 0.00 | 0.00 | 29 | 1018.5 |
| 20260506004805 | 9 | 144 | 3.2 | 8.0 | 0.00 | 0.00 | 0.00 | 28 | 1018.5 |
| 20260506003804 | 10 | 260 | 3.2 | 9.7 | 0.00 | 0.00 | 0.00 | 28 | 1018.4 |
| 20260506003304 | 9 | 243 | 4.8 | 9.7 | 0.00 | 0.00 | 0.00 | 28 | 1018.5 |
| 20260506002805 | 10 | 208 | 1.6 | 11.3 | 0.00 | 0.00 | 0.00 | 28 | 1018.7 |
| 20260506002306 | 10 | 209 | 1.6 | 3.2 | 0.00 | 0.00 | 0.00 | 28 | 1018.5 |
| 20260506001804 | 10 | 193 | 3.2 | 11.3 | 0.00 | 0.00 | 0.00 | 28 | 1018.8 |
| 20260506000804 | 10 | 110 | 4.8 | 9.7 | 0.00 | 0.00 | 0.00 | 29 | 1018.7 |
| 20260506000303 | 10 | 247 | 3.2 | 11.3 | 0.00 | 0.00 | 0.00 | 28 | 1018.8 |
| 20260505235305 | 10 | 198 | 3.2 | 11.3 | 0.00 | 0.00 | 0.00 | 28 | 1018.9 |
| 20260505234304 | 10 | 200 | 3.2 | 8.0 | 0.00 | 0.00 | 0.00 | 29 | 1018.8 |
| 20260505233804 | 10 | 139 | 4.8 | 8.0 | 0.00 | 0.00 | 0.00 | 28 | 1019.0 |
| 20260505233304 | 10 | 200 | 4.8 | 14.5 | 0.00 | 0.00 | 0.00 | 28 | 1018.9 |
| 20260505232803 | 10 | 212 | 4.8 | 14.5 | 0.00 | 0.00 | 0.00 | 29 | 1018.9 |
| 20260505232305 | 10 | 97 | 6.4 | 14.5 | 0.00 | 0.00 | 0.00 | 28 | 1018.9 |
| 20260505231304 | 10 | 143 | 4.8 | 12.9 | 0.00 | 0.00 | 0.00 | 30 | 1019.2 |
| 20260505230304 | 10 | 106 | 1.6 | 11.3 | 0.00 | 0.00 | 0.00 | 31 | 1019.2 |
| 20260505225804 | 10 | 99 | 6.4 | 16.1 | 0.00 | 0.00 | 0.00 | 30 | 1019.2 |
| 20260505225306 | 10 | 124 | 4.8 | 12.9 | 0.00 | 0.00 | 0.00 | 30 | 1019.3 |
| 20260505224804 | 10 | 133 | 4.8 | 12.9 | 0.00 | 0.00 | 0.00 | 31 | 1019.4 |
| 20260505224304 | 10 | 145 | 4.8 | 9.7 | 0.00 | 0.00 | 0.00 | 31 | 1019.4 |
| 20260505223804 | 10 | 166 | 3.2 | 14.5 | 0.00 | 0.00 | 0.00 | 30 | 1019.4 |
| 20260505223304 | 10 | 220 | 4.8 | 14.5 | 0.00 | 0.00 | 0.00 | 31 | 1019.5 |
| 20260505222804 | 10 | 167 | 4.8 | 12.9 | 0.00 | 0.00 | 0.00 | 31 | 1019.5 |
| 20260505222306 | 10 | 123 | 3.2 | 11.3 | 0.00 | 0.00 | 0.00 | 31 | 1019.6 |
| 20260505221804 | 10 | 91 | 8.0 | 16.1 | 0.00 | 0.00 | 0.00 | 32 | 1019.6 |
| 20260505221304 | 10 | 136 | 3.2 | 12.9 | 0.00 | 0.00 | 0.00 | 33 | 1019.9 |
| 20260505220304 | 9 | 124 | 4.8 | 12.9 | 0.00 | 0.00 | 0.00 | 32 | 1019.9 |
| 20260505215804 | 9 | 187 | 3.2 | 12.9 | 0.00 | 0.00 | 0.00 | 33 | 1020.0 |
| 20260505214304 | 10 | 93 | 3.2 | 11.3 | 0.00 | 0.00 | 0.00 | 32 | 1020.1 |
| 20260505213804 | 10 | 121 | 6.4 | 14.5 | 0.00 | 0.00 | 0.00 | 33 | 1020.2 |
| 20260505213304 | 10 | 203 | 4.8 | 11.3 | 0.00 | 0.00 | 0.00 | 33 | 1020.1 |
| 20260505212804 | 10 | 182 | 4.8 | 16.1 | 0.00 | 0.00 | 0.00 | 32 | 1020.2 |
| 20260505212305 | 10 | 124 | 8.0 | 16.1 | 0.00 | 0.00 | 0.00 | 33 | 1020.2 |
| 20260505210303 | 9 | 111 | 6.4 | 16.1 | 0.00 | 0.00 | 0.00 | 34 | 1020.6 |
| 20260505205803 | 10 | 161 | 6.4 | 16.1 | 0.00 | 0.00 | 0.00 | 33 | 1020.5 |
| 20260505205305 | 10 | 150 | 6.4 | 24.1 | 0.00 | 0.00 | 0.00 | 33 | 1020.4 |
| 20260505204804 | 10 | 106 | 4.8 | 14.5 | 0.00 | 0.00 | 0.00 | 33 | 1020.4 |
| 20260505204304 | 10 | 226 | 3.2 | 8.0 | 0.00 | 0.00 | 0.00 | 32 | 1020.5 |
| 20260505203804 | 10 | 130 | 6.4 | 14.5 | 0.00 | 0.00 | 0.00 | 33 | 1020.5 |
| 20260505203304 | 10 | 150 | 4.8 | 12.9 | 0.00 | 0.00 | 0.00 | 34 | 1020.6 |
| 20260505202804 | 10 | 112 | 9.7 | 22.5 | 0.00 | 0.00 | 0.00 | 33 | 1020.6 |
| 20260505202306 | 10 | 104 | 4.8 | 11.3 | 0.00 | 0.00 | 0.00 | 32 | 1020.7 |
| 20260505201804 | 10 | 352 | 3.2 | 12.9 | 0.00 | 0.00 | 0.00 | 32 | 1020.7 |
| 20260505201304 | 10 | 94 | 1.6 | 14.5 | 0.00 | 0.00 | 0.00 | 32 | 1020.7 |
| 20260505200803 | 11 | 172 | 6.4 | 14.5 | 0.00 | 0.00 | 0.00 | 33 | 1020.7 |